Simultaneous Nadir Overpasses (SNOs) Predictions

Prediction of SNOs between METOP-B and NOAA-19 Satellite Orbit:

Table of predicted SNOs for the next 14.0 days since TLE Epoch: 11/25/2017
Index Date (METOP-B) Time (METOP-B) Lat,Lon (METOP-B) SZA (METOP-B ) Date (NOAA-19) Time (NOAA-19) Lat,Lon (NOAA-19) SZA (NOAA-19 ) Distance(km) Time Diff (sec)
1 12/04/2017 05:16:43 -78.19, -69.87 79.39 12/04/2017 05:15:39 -78.19, -74.21 79.54 98.76 64
2 12/04/2017 06:07:34 77.76, 95.22 100.11 12/04/2017 06:06:35 77.79, 95.25 100.14 4.07 59
3 12/04/2017 06:58:15 -77.77, -97.38 79.87 12/04/2017 06:57:30 -77.79, -97.47 79.86 2.85 45
4 12/04/2017 07:48:55 77.78, 70.00 100.15 12/04/2017 07:48:36 77.78, 69.82 100.14 4.13 19
5 12/04/2017 08:39:37 -77.76,-122.80 79.88 12/04/2017 08:39:31 -77.78,-122.89 79.87 3.01 6
6 12/04/2017 09:30:17 77.77, 44.58 100.14 12/04/2017 09:30:37 77.76, 44.40 100.13 4.20 20
7 12/04/2017 10:20:59 -77.74,-148.21 79.89 12/04/2017 10:21:32 -77.76,-148.31 79.87 3.18 33
8 12/04/2017 11:11:39 77.75, 19.16 100.13 12/04/2017 11:12:38 77.75, 18.98 100.13 4.29 59
9 12/04/2017 12:02:21 -77.72,-173.63 79.90 12/04/2017 12:03:32 -77.71,-173.53 79.90 3.21 71




NCC Satellite Simultaneous Nadir Overpasses (SNOs) Prediction Service
